#timestamp,LO_Frequency,Hit,StdDev 
1551938415.9,286047002.4,N
1551938435.7,286047002.1,N
1551938455.6,286047002.6,N
1551938475.4,286047002.4,N
1551938495.2,286047002.7,N
1551938515.1,286047002.2,N
1551938516.0,286047002.2,N
1551938535.8,286047002.2,N
1551938555.7,286047002.2,N
1551938575.5,286047004.4,Y
1551938595.3,286046998.5,P
1551938615.2,286047000.5,N
1551938635.0,286047000.6,N
1551938635.9,286047000.6,N
1551938655.7,286047000.3,N
1551938675.6,286047001.1,N
1551938695.4,286047004.2,Y
1551938715.3,286047004.4,P
1551938735.1,286046999.8,N
1551938736.0,286046999.8,N
1551938755.8,286047002.4,N
1551938775.7,286047000.3,N
1551938795.5,286047000.0,N
1551938815.3,286047000.0,N
1551938835.2,286047000.1,N
1551938855.0,286047002.6,N
1551938855.9,286047002.6,N
1551938875.8,286047000.3,N
1551938895.6,286047001.6,N
1551938915.4,286047004.3,Y
1551938935.3,286047002.0,P
1551938955.1,286047002.1,P
1551938975.9,286047002.8,P
1551938995.7,286046998.5,N
1551939015.5,286047000.1,N
1551939035.4,286047002.1,N
1551939055.2,286047001.8,N
1551939075.0,286047002.1,N
1551939075.9,286047002.1,N
1551939095.8,286047004.2,Y
1551939115.6,286046999.7,P
1551939135.5,286047000.3,N
1551939155.3,286047000.6,N
1551939175.1,286047000.4,N
1551939195.9,286047000.3,N
1551939215.7,286046998.4,Y
1551939235.6,286046998.9,P
1551939255.4,286046998.1,N
1551939275.2,286047000.8,N
1551939295.1,286046998.8,N
1551939296.0,286046998.8,N
1551939315.8,286046998.7,N
1551939335.6,286046996.6,Y
1551939355.5,286046998.9,P
1551939375.3,286046999.5,P
1551939395.2,286046997.8,P
1551939415.9,286046997.6,Y
1551939435.7,286046999.1,P
1551939455.6,286046996.6,P
1551939475.4,286046999.2,N
1551939495.3,286046996.9,N
1551939515.1,286046998.6,N
1551939516.0,286046998.6,N
1551939535.8,286046998.1,N
1551939555.7,286046999.1,N
1551939575.5,286046996.6,Y
1551939595.3,286046998.3,P
1551939615.2,286046998.7,P
1551939635.0,286046998.2,P
1551939635.9,286046998.2,Y
1551939655.8,286047000.3,P
1551939675.6,286047002.7,N
1551939695.4,286047000.5,N
1551939715.3,286046999.7,N
1551939735.1,286046999.7,N
1551939755.9,286047000.2,N
1551939775.7,286047000.5,N
1551939795.5,286047000.8,N
1551939815.4,286047001.0,N
1551939835.2,286047001.1,N
1551939855.0,286047001.2,N
1551939855.9,286047001.2,N
1551939875.8,286046998.4,N
1551939895.6,286046998.6,N
1551939915.5,286046998.6,N
1551939935.3,286046998.6,N
1551939955.1,286047001.1,N
1551939975.9,286046998.6,N
1551939995.7,286046999.4,N
1551940015.5,286047001.2,N
1551940035.4,286047001.1,N
1551940055.2,286047000.5,N
1551940075.1,286047000.0,N
1551940076.0,286047000.0,N
1551940095.8,286047000.4,N
1551940115.6,286046998.1,N
1551940135.5,286046998.2,N
1551940155.3,286046999.4,N
1551940175.2,286047001.0,N
1551940195.9,286046998.3,N
1551940215.7,286047000.6,N
1551940235.6,286047000.3,N
1551940255.4,286047000.8,N
1551940275.2,286047000.9,N
1551940295.1,286046998.5,N
1551940296.0,286046998.5,N
1551940315.8,286046998.9,N
1551940335.7,286046998.7,N
1551940355.5,286046998.7,N
1551940375.3,286047000.4,N
1551940395.2,286047000.9,N
1551940415.0,286047000.5,N
1551940415.9,286047000.5,N
1551940435.7,286047000.6,N
1551940455.6,286047000.0,N
1551940475.4,286047000.7,N
1551940495.3,286047000.0,N
1551940515.1,286047000.7,N
1551940535.8,286047000.4,N
1551940555.7,286047001.1,N
1551940575.5,286046998.1,N
1551940595.4,286046999.1,N
1551940615.2,286046999.2,N
1551940635.0,286046999.6,N
1551940635.9,286046999.6,N
1551940655.8,286046998.5,N
1551940675.6,286046998.1,N
1551940695.4,286046998.5,N
1551940715.3,286046999.4,N
1551940735.1,286046999.0,N
1551940755.9,286046999.0,N
1551940775.7,286046997.5,N
1551940795.5,286046997.0,N
1551940815.4,286046996.8,N
1551940835.2,286046996.5,Y
1551940855.0,286046999.6,P
1551940855.9,286046999.6,N
1551940875.8,286046996.6,P
1551940895.6,286046998.9,N
1551940915.5,286046999.2,N
1551940935.3,286046998.8,N
1551940955.1,286046998.7,N
1551940975.9,286046999.1,N
1551940995.7,286046998.8,N
1551941015.6,286046998.8,N
1551941035.4,286046999.5,N
1551941055.2,286046999.2,N
1551941075.1,286046999.6,N
1551941076.0,286046999.6,N
1551941095.8,286046998.5,N
1551941115.6,286047000.7,N
1551941135.5,286046999.8,N
1551941155.3,286047000.1,N
1551941175.2,286047000.2,N
1551941195.9,286047002.3,N
1551941215.7,286047002.2,N
1551941235.6,286047001.9,N
1551941255.4,286047002.4,N
1551941275.2,286047000.2,N
1551941295.1,286047001.7,N
1551941296.0,286047001.7,N
1551941315.8,286047004.4,Y
1551941335.7,286047003.3,P
1551941355.5,286047005.4,P
1551941375.3,286047005.6,N
1551941395.2,286047004.7,N
1551941415.0,286047007.4,Y
1551941415.9,286047007.4,P
1551941435.8,286047002.8,N
1551941455.6,286047000.8,N
1551941475.4,286047001.1,N
1551941495.3,286046999.1,N
1551941515.1,286047000.5,N
1551941535.9,286047000.6,N
1551941555.7,286047001.1,N
1551941575.5,286046999.0,N
1551941595.4,286046998.3,N
1551941615.2,286047000.5,N
1551941635.0,286047000.7,N
1551941635.9,286047000.7,N
1551941655.8,286047000.7,N
1551941675.6,286046999.0,N
1551941695.5,286046998.3,N
1551941715.3,286047000.5,N
1551941735.1,286047000.4,N
1551941755.9,286047001.7,N
1551941775.7,286047001.7,N
1551941795.6,286047002.7,N
1551941815.4,286047002.2,N
1551941835.2,286047002.6,N
1551941855.1,286047000.6,N
1551941856.0,286047000.6,N
1551941875.8,286047001.0,N
1551941895.6,286046998.1,N
1551941915.5,286047000.9,N
1551941935.3,286046999.9,N
1551941955.2,286047000.2,N
1551941975.9,286046999.8,N
1551941995.7,286046999.8,N
